Location: Devore Heights
(34.2372°N, 117.4156°W)
Time: 18:59:41
(UTC+00:00)

S-56A Canister/Altair - Pass Details

Date: 20 September 2024
Orbit: 636 x 2487 km, 38.9° (Epoch: 14 October)

Event Time Altitude Azimuth Distance (km) Brightness Sun altitude
Rises 09:18:08 0° 269° (W) 4,862 - -48.4°
Reaches altitude 10° 09:24:21 10° 241° (WSW) 4,323 - -47.6°
Maximum altitude 09:28:02 12° 223° (SW) 4,391 - -47.2°
Drops below altitude 10° 09:32:03 10° 205° (SSW) 4,756 - -46.6°
Sets 09:40:09 0° 179° (S) 6,051 - -45.5°
